Powrót do katalogu

STARLINK-35825

AktywnyŁącznośćVLEO
NORAD 66567·PAYLOAD·🇺🇸 United States

Wystrzelony Nov 21, 2025 z Cape Canaveral Space Force Station

Loading…

Następne Przeloty (najbliższe 24 godziny)

TLE

ŚwieżeSource: CelesTrak SupGP

Epoka: Sep 14, 2026, 14:23 UTC

1 66567C 25268L   26257.59979167 -.00044659  00000+0 -16183-2 0  2575
2 66567  43.0035 359.9125 0001306 273.0408 115.4705 15.27586818    10

Śledź STARLINK-35825 w czasie rzeczywistym z AllMySat

Download on the App Store